DECAYED

STARLINK-4136, 53260 (Decayed)

Orbit data source: Space-Track

STARLINK-4136, 53260 was a payload satellite owned by SpaceX/Seattle (US) in LEO that was launched on Sun, 24 Jul 2022 UTC via an FALCON 9 launch vehicle from the Air Force Eastern Test Range (AFETR). Payload-class satellites include a variety of spacecraft equipped with specific instruments for various scientific and technological missions. These include communications satellites like Starlink; space stations such as the ISS; scientific satellites like the Hubble; Earth observation satellites from companies like Planet Labs, Umbra, and HawkEye 360; GPS; miniature CubeSats for education and research; and military/defense satellites.

Not visible in the next 10 days
Identifier
53260, 2022-086U
Orbit
Decayed
Country
Flag of USUS
Related business
Manufacturer
SpaceX/Seattle
Mission
Decayed Commercial Communications
Bus & Motor
STARLINK, Unknown motor
Mass
297 kg wet, ~275 kg dry
Launch date (UTC)
2022-07-24 (4 years ago)
Launch vehicle
FALCON 9
Launch site
Air Force Eastern Test Range (AFETR)
Object type
Payload
Rocket body
Debris
Shape & HBR
Box + 1 Pan, 10.1 m
Radar Cross Section
13.562 m², Large (>1 m²)

Expand to show TLE details & history
Last TLE update: 1 year ago

TLE from 1 year ago
0 STARLINK-4136
1 53260U 22086U   25154.95478234  .15530824  12534-4  27617-3 0  9996
2 53260  53.2050 340.7823 0005646 258.3597 252.6768 16.47406846159142
Epoch: 2025-06-03T22:54Z
TLE epoch observation values (Epoch: 2025-06-03T22:54:53.194Z)
Latitude
22.9245°
Longitude
-93.91477°
Altitude
148.041 km
Speed
7.82 km/s
True Right ascension
09h 29m 48s
True Declination
22° 47' 24"
Sunlit
Object was in daylight at epoch
Visualization orbit readout
Latitude
Unknown
Longitude
Unknown
Altitude
Unknown
Speed
Unknown
Apparent Right ascension
Unknown
Apparent Declination
Unknown
Sunlit
N/A
Visualization observer readout
Local Sidereal Time
21:32:06
Azimuth
Unknown
Elevation
Unknown
Doppler factor
Unknown
Orbital elements
Apogee altitude
150.118 km
Perigee altitude
142.751 km
Semi-major axis
6,524.571 km
Eccentricity
0.00056
Inclination
53.205°
RAAN
340.7823°
Arg. of periapsis
258.3597°
True anomaly
252.61505°
Mean anomaly
252.6768°
Eccentric anomaly
252.64592°
Mean motion
4.11827 °/min
Orbital period
87.42 mins
BSTAR
0.00027617
Loading maneuver chart data...
Computing Atmospheric mass density...
Loading historical data...
Loading historical data...
Loading historical data...
Loading historical data...
Loading historical data...
Loading historical data...
Loading historical data...

Documentation

Showing up to 5 results
|